| time (UTC) | temp F | wind direction | speed knots | gust knots | rain 1hr in | rain 24hr in | rain mn in | humidity % | barometer mb |
| 20260507214615 | 75 | 260 | 4.3 | 5.2 | 0.00 | 0.00 | 0.00 | 61 | 1014.3 |
| 20260507214115 | 76 | 260 | 4.3 | 6.1 | 0.00 | 0.00 | 0.00 | 60 | 1014.3 |
| 20260507213656 | 76 | 260 | 2.6 | 4.3 | 0.00 | 0.00 | 0.00 | 61 | 1014.3 |
| 20260507213135 | 76 | 238 | 3.5 | 6.1 | 0.00 | 0.00 | 0.00 | 60 | 1014.3 |
| 20260507212615 | 75 | 148 | 0.9 | 2.6 | 0.00 | 0.00 | 0.00 | 59 | 1014.3 |
| 20260507212115 | 75 | 238 | 3.5 | 7.0 | 0.00 | 0.00 | 0.00 | 60 | 1014.4 |
| 20260507211615 | 75 | 215 | 2.6 | 3.5 | 0.00 | 0.00 | 0.00 | 60 | 1014.5 |
| 20260507211115 | 76 | 148 | 1.7 | 2.6 | 0.00 | 0.00 | 0.00 | 59 | 1014.5 |
| 20260507210615 | 75 | 238 | 3.5 | 6.1 | 0.00 | 0.00 | 0.00 | 59 | 1014.6 |
| 20260507210115 | 76 | 170 | 3.5 | 5.2 | 0.00 | 0.00 | 0.00 | 59 | 1014.7 |
| 20260507205615 | 75 | 260 | 3.5 | 6.1 | 0.00 | 0.00 | 0.00 | 58 | 1014.8 |
| 20260507205115 | 75 | 148 | 4.3 | 7.8 | 0.00 | 0.00 | 0.00 | 60 | 1014.8 |
| 20260507204615 | 75 | 170 | 4.3 | 5.2 | 0.00 | 0.00 | 0.00 | 60 | 1014.8 |
| 20260507204115 | 74 | 215 | 1.7 | 2.6 | 0.00 | 0.00 | 0.00 | 61 | 1014.9 |
| 20260507203615 | 73 | 148 | 1.7 | 2.6 | 0.00 | 0.00 | 0.00 | 62 | 1014.9 |
| 20260507203115 | 73 | 215 | 3.5 | 6.1 | 0.00 | 0.00 | 0.00 | 61 | 1014.9 |
| 20260507202615 | 74 | 148 | 2.6 | 5.2 | 0.00 | 0.00 | 0.00 | 62 | 1014.9 |
| 20260507202115 | 74 | 148 | 1.7 | 3.5 | 0.00 | 0.00 | 0.00 | 63 | 1014.9 |
| 20260507201615 | 73 | 215 | 3.5 | 6.1 | 0.00 | 0.00 | 0.00 | 63 | 1015.0 |
| 20260507201115 | 73 | 125 | 4.3 | 7.0 | 0.00 | 0.00 | 0.00 | 62 | 1015.1 |
| 20260507200617 | 73 | 148 | 3.5 | 6.1 | 0.00 | 0.00 | 0.00 | 62 | 1015.2 |
| 20260507200137 | 74 | 148 | 2.6 | 3.5 | 0.00 | 0.00 | 0.00 | 61 | 1015.3 |
| 20260507195617 | 74 | 148 | 2.6 | 4.3 | 0.00 | 0.00 | 0.00 | 60 | 1015.3 |
| 20260507195115 | 74 | 283 | 2.6 | 3.5 | 0.00 | 0.00 | 0.00 | 62 | 1015.4 |
| 20260507194637 | 73 | 260 | 4.3 | 7.8 | 0.00 | 0.00 | 0.00 | 63 | 1015.4 |
| 20260507194117 | 73 | 215 | 2.6 | 3.5 | 0.00 | 0.00 | 0.00 | 64 | 1015.5 |
| 20260507193616 | 73 | 148 | 5.2 | 7.8 | 0.00 | 0.00 | 0.00 | 64 | 1015.5 |
| 20260507193115 | 73 | 125 | 5.2 | 7.0 | 0.00 | 0.00 | 0.00 | 64 | 1015.4 |
| 20260507192617 | 73 | 238 | 3.5 | 6.1 | 0.00 | 0.00 | 0.00 | 63 | 1015.5 |
| 20260507192117 | 73 | 148 | 6.1 | 7.8 | 0.00 | 0.00 | 0.00 | 63 | 1015.6 |
| 20260507191617 | 73 | 238 | 3.5 | 5.2 | 0.00 | 0.00 | 0.00 | 64 | 1015.6 |
| 20260507191117 | 72 | 170 | 3.5 | 5.2 | 0.00 | 0.00 | 0.00 | 64 | 1015.7 |
| 20260507190657 | 72 | 148 | 3.5 | 5.2 | 0.00 | 0.00 | 0.00 | 64 | 1015.8 |
| 20260507190137 | 73 | 170 | 4.3 | 6.1 | 0.00 | 0.00 | 0.00 | 63 | 1015.7 |
| 20260507185617 | 73 | 125 | 1.7 | 3.5 | 0.00 | 0.00 | 0.00 | 63 | 1015.8 |
| 20260507185117 | 73 | 148 | 3.5 | 5.2 | 0.00 | 0.00 | 0.00 | 63 | 1015.9 |
| 20260507184617 | 73 | 125 | 2.6 | 3.5 | 0.00 | 0.00 | 0.00 | 63 | 1015.9 |
| 20260507184157 | 73 | 125 | 3.5 | 6.1 | 0.00 | 0.00 | 0.00 | 63 | 1015.9 |
| 20260507183617 | 72 | 148 | 0.9 | 3.5 | 0.00 | 0.00 | 0.00 | 64 | 1015.9 |
| 20260507183115 | 72 | 238 | 2.6 | 5.2 | 0.00 | 0.00 | 0.00 | 63 | 1016.0 |
| 20260507182617 | 71 | 0.0 | 1.7 | 0.00 | 0.00 | 0.00 | 64 | 1016.0 | |
| 20260507182117 | 72 | 148 | 3.5 | 4.3 | 0.00 | 0.00 | 0.00 | 64 | 1016.1 |
| 20260507181617 | 72 | 148 | 2.6 | 6.1 | 0.00 | 0.00 | 0.00 | 64 | 1016.0 |
| 20260507181117 | 71 | 215 | 3.5 | 5.2 | 0.00 | 0.00 | 0.00 | 64 | 1016.1 |
| 20260507180617 | 72 | 148 | 1.7 | 3.5 | 0.00 | 0.00 | 0.00 | 64 | 1016.1 |
| 20260507180117 | 71 | 80 | 1.7 | 3.5 | 0.00 | 0.00 | 0.00 | 65 | 1016.1 |
| 20260507175617 | 71 | 148 | 2.6 | 3.5 | 0.00 | 0.00 | 0.00 | 65 | 1016.0 |
| 20260507175117 | 71 | 148 | 4.3 | 7.0 | 0.00 | 0.00 | 0.00 | 64 | 1016.1 |
| 20260507174617 | 72 | 215 | 3.5 | 5.2 | 0.00 | 0.00 | 0.00 | 63 | 1016.1 |
| 20260507174117 | 72 | 148 | 1.7 | 4.3 | 0.00 | 0.00 | 0.00 | 65 | 1016.2 |
| 20260507173617 | 71 | 125 | 1.7 | 2.6 | 0.00 | 0.00 | 0.00 | 66 | 1016.2 |
| 20260507173117 | 71 | 125 | 1.7 | 4.3 | 0.00 | 0.00 | 0.00 | 66 | 1016.2 |
| 20260507172617 | 71 | 260 | 1.7 | 2.6 | 0.00 | 0.00 | 0.00 | 66 | 1016.2 |
| 20260507172117 | 70 | 215 | 1.7 | 3.5 | 0.00 | 0.00 | 0.00 | 67 | 1016.2 |
| 20260507171617 | 70 | 260 | 2.6 | 3.5 | 0.00 | 0.00 | 0.00 | 66 | 1016.2 |
| 20260507171137 | 70 | 125 | 2.6 | 4.3 | 0.00 | 0.00 | 0.00 | 66 | 1016.2 |
| 20260507170617 | 71 | 125 | 5.2 | 7.0 | 0.00 | 0.00 | 0.00 | 64 | 1016.2 |
| 20260507170117 | 70 | 260 | 0.9 | 2.6 | 0.00 | 0.00 | 0.00 | 65 | 1016.2 |
| 20260507165617 | 70 | 238 | 2.6 | 4.3 | 0.00 | 0.00 | 0.00 | 66 | 1016.2 |
| 20260507165117 | 70 | 215 | 1.7 | 2.6 | 0.00 | 0.00 | 0.00 | 66 | 1016.2 |
| 20260507164617 | 70 | 170 | 0.9 | 1.7 | 0.00 | 0.00 | 0.00 | 67 | 1016.2 |
| 20260507164117 | 70 | 305 | 0.9 | 2.6 | 0.00 | 0.00 | 0.00 | 68 | 1016.3 |
| 20260507163617 | 70 | 148 | 2.6 | 3.5 | 0.00 | 0.00 | 0.00 | 68 | 1016.3 |
| 20260507163117 | 70 | 148 | 1.7 | 2.6 | 0.00 | 0.00 | 0.00 | 68 | 1016.4 |
| 20260507162737 | 70 | 0.0 | 0.9 | 0.00 | 0.00 | 0.00 | 69 | 1016.4 | |
| 20260507162137 | 69 | 0.0 | 0.0 | 0.00 | 0.00 | 0.00 | 71 | 1016.4 | |
| 20260507161617 | 68 | 103 | 0.9 | 1.7 | 0.00 | 0.00 | 0.00 | 71 | 1016.5 |
| 20260507161116 | 69 | 125 | 2.6 | 3.5 | 0.00 | 0.00 | 0.00 | 70 | 1016.5 |
| 20260507160617 | 69 | 148 | 1.7 | 3.5 | 0.00 | 0.00 | 0.00 | 69 | 1016.5 |
| 20260507160116 | 69 | 0.0 | 0.9 | 0.00 | 0.00 | 0.00 | 72 | 1016.5 | |
| 20260507155617 | 68 | 0.0 | 0.0 | 0.00 | 0.00 | 0.00 | 75 | 1016.6 | |
| 20260507155116 | 67 | 0.0 | 0.0 | 0.00 | 0.00 | 0.00 | 77 | 1016.6 | |
| 20260507154616 | 67 | 0.0 | 0.9 | 0.00 | 0.00 | 0.00 | 76 | 1016.6 | |
| 20260507154116 | 66 | 35 | 0.9 | 0.9 | 0.00 | 0.00 | 0.00 | 78 | 1016.6 |
| 20260507153617 | 65 | 13 | 0.9 | 0.9 | 0.00 | 0.00 | 0.00 | 80 | 1016.6 |
| 20260507153116 | 64 | 0.0 | 0.9 | 0.00 | 0.00 | 0.00 | 79 | 1016.5 | |
| 20260507152617 | 65 | 0.0 | 0.9 | 0.00 | 0.00 | 0.00 | 81 | 1016.6 | |
| 20260507152117 | 65 | 0.0 | 0.0 | 0.00 | 0.00 | 0.00 | 82 | 1016.7 | |
| 20260507151637 | 64 | 13 | 0.9 | 1.7 | 0.00 | 0.00 | 0.00 | 81 | 1016.7 |
| 20260507151116 | 63 | 0.0 | 0.0 | 0.00 | 0.00 | 0.00 | 86 | 1016.7 | |
| 20260507150616 | 62 | 305 | 0.9 | 0.9 | 0.00 | 0.00 | 0.00 | 84 | 1016.7 |
| 20260507150117 | 62 | 305 | 0.9 | 0.9 | 0.00 | 0.00 | 0.00 | 85 | 1016.7 |
| 20260507145617 | 62 | 283 | 0.9 | 0.9 | 0.00 | 0.00 | 0.00 | 86 | 1016.7 |
| 20260507145137 | 61 | 0.0 | 0.9 | 0.00 | 0.00 | 0.00 | 87 | 1016.6 | |
| 20260507144617 | 60 | 305 | 0.9 | 1.7 | 0.00 | 0.00 | 0.00 | 88 | 1016.7 |
| 20260507144117 | 60 | 260 | 1.7 | 1.7 | 0.00 | 0.00 | 0.00 | 89 | 1016.6 |
| 20260507143616 | 60 | 0.0 | 0.9 | 0.00 | 0.00 | 0.00 | 90 | 1016.6 | |
| 20260507143116 | 59 | 260 | 0.9 | 1.7 | 0.00 | 0.00 | 0.00 | 91 | 1016.5 |
| 20260507142637 | 59 | 0.0 | 0.9 | 0.00 | 0.00 | 0.00 | 92 | 1016.5 | |
| 20260507142117 | 59 | 0.0 | 0.9 | 0.00 | 0.00 | 0.00 | 93 | 1016.4 | |
| 20260507141617 | 58 | 0.0 | 0.9 | 0.00 | 0.00 | 0.00 | 94 | 1016.4 | |
| 20260507141117 | 58 | 0.0 | 0.0 | 0.00 | 0.00 | 0.00 | 95 | 1016.3 | |
| 20260507140616 | 57 | 0.0 | 0.0 | 0.00 | 0.00 | 0.00 | 95 | 1016.4 | |
| 20260507140116 | 57 | 0.0 | 0.0 | 0.00 | 0.00 | 0.00 | 95 | 1016.3 | |
| 20260507135617 | 57 | 0.0 | 0.0 | 0.00 | 0.00 | 0.00 | 95 | 1016.2 | |
| 20260507135117 | 56 | 0.0 | 0.0 | 0.00 | 0.00 | 0.00 | 95 | 1016.2 | |
| 20260507134616 | 56 | 0.0 | 0.0 | 0.00 | 0.00 | 0.00 | 95 | 1016.1 | |
| 20260507134137 | 56 | 0.0 | 0.0 | 0.00 | 0.00 | 0.00 | 95 | 1016.0 | |
| 20260507133616 | 56 | 0.0 | 0.0 | 0.00 | 0.00 | 0.00 | 95 | 1016.0 | |
| 20260507133137 | 55 | 0.0 | 0.0 | 0.00 | 0.00 | 0.00 | 95 | 1016.0 | |
| 20260507132616 | 55 | 0.0 | 0.0 | 0.00 | 0.00 | 0.00 | 95 | 1015.9 | |
| 20260507132136 | 55 | 0.0 | 0.0 | 0.00 | 0.00 | 0.00 | 95 | 1016.0 | |
| 20260507131617 | 55 | 0.0 | 0.0 | 0.00 | 0.00 | 0.00 | 95 | 1015.9 | |
| 20260507131117 | 55 | 0.0 | 0.0 | 0.00 | 0.00 | 0.00 | 95 | 1015.9 | |
| 20260507130617 | 54 | 0.0 | 0.0 | 0.00 | 0.00 | 0.00 | 95 | 1015.8 | |
| 20260507130117 | 55 | 0.0 | 0.0 | 0.00 | 0.00 | 0.00 | 95 | 1015.8 | |
| 20260507125616 | 55 | 0.0 | 0.0 | 0.00 | 0.00 | 0.00 | 94 | 1015.7 | |
| 20260507125117 | 55 | 0.0 | 0.0 | 0.00 | 0.00 | 0.00 | 94 | 1015.6 | |
| 20260507124616 | 55 | 0.0 | 0.0 | 0.00 | 0.00 | 0.00 | 95 | 1015.6 | |
| 20260507124116 | 55 | 0.0 | 0.0 | 0.00 | 0.00 | 0.00 | 94 | 1015.6 | |
| 20260507123616 | 55 | 0.0 | 0.0 | 0.00 | 0.00 | 0.00 | 94 | 1015.7 | |
| 20260507123117 | 54 | 0.0 | 0.0 | 0.00 | 0.00 | 0.00 | 94 | 1015.7 | |
| 20260507122656 | 55 | 0.0 | 0.0 | 0.00 | 0.00 | 0.00 | 94 | 1015.6 | |
| 20260507122116 | 55 | 0.0 | 0.0 | 0.00 | 0.00 | 0.00 | 94 | 1015.7 | |
| 20260507121616 | 55 | 0.0 | 0.0 | 0.00 | 0.00 | 0.00 | 94 | 1015.7 | |
| 20260507121117 | 55 | 0.0 | 0.0 | 0.00 | 0.00 | 0.00 | 94 | 1015.7 | |
| 20260507120616 | 55 | 0.0 | 0.0 | 0.00 | 0.00 | 0.00 | 93 | 1015.7 | |
| 20260507120116 | 55 | 0.0 | 0.0 | 0.00 | 0.00 | 0.00 | 93 | 1015.8 | |
| 20260507115636 | 55 | 0.0 | 0.0 | 0.00 | 0.00 | 0.00 | 93 | 1015.8 | |
| 20260507115116 | 56 | 0.0 | 0.0 | 0.00 | 0.00 | 0.00 | 93 | 1015.8 | |
| 20260507114616 | 56 | 0.0 | 0.0 | 0.00 | 0.00 | 0.00 | 93 | 1015.8 | |
| 20260507114116 | 56 | 0.0 | 0.0 | 0.00 | 0.00 | 0.00 | 94 | 1015.8 | |
| 20260507113616 | 56 | 0.0 | 0.0 | 0.00 | 0.00 | 0.00 | 94 | 1015.8 | |
| 20260507113116 | 56 | 0.0 | 0.0 | 0.00 | 0.00 | 0.00 | 93 | 1015.8 | |
| 20260507112637 | 56 | 0.0 | 0.0 | 0.00 | 0.00 | 0.00 | 93 | 1015.7 | |
| 20260507112116 | 56 | 0.0 | 0.0 | 0.00 | 0.00 | 0.00 | 93 | 1015.8 | |
| 20260507111616 | 56 | 0.0 | 0.0 | 0.00 | 0.00 | 0.00 | 93 | 1015.8 | |
| 20260507111117 | 56 | 0.0 | 0.0 | 0.00 | 0.00 | 0.00 | 93 | 1015.8 | |
| 20260507110616 | 56 | 0.0 | 0.0 | 0.00 | 0.00 | 0.00 | 94 | 1015.9 | |
| 20260507110116 | 56 | 0.0 | 0.0 | 0.00 | 0.00 | 0.00 | 94 | 1015.9 | |
| 20260507105616 | 55 | 0.0 | 0.0 | 0.00 | 0.00 | 0.00 | 93 | 1016.0 | |
| 20260507105116 | 55 | 0.0 | 0.0 | 0.00 | 0.00 | 0.00 | 93 | 1016.0 | |
| 20260507104616 | 55 | 0.0 | 0.0 | 0.00 | 0.00 | 0.00 | 93 | 1016.1 | |
| 20260507104156 | 56 | 0.0 | 0.0 | 0.00 | 0.00 | 0.00 | 93 | 1016.1 | |
| 20260507103616 | 56 | 0.0 | 0.0 | 0.00 | 0.00 | 0.00 | 93 | 1016.1 | |
| 20260507103136 | 56 | 0.0 | 0.0 | 0.00 | 0.00 | 0.00 | 93 | 1016.1 | |
| 20260507102616 | 56 | 0.0 | 0.0 | 0.00 | 0.00 | 0.00 | 93 | 1016.2 | |
| 20260507102116 | 56 | 0.0 | 0.0 | 0.00 | 0.00 | 0.00 | 92 | 1016.2 | |
| 20260507101616 | 56 | 0.0 | 0.0 | 0.00 | 0.00 | 0.00 | 92 | 1016.2 | |
| 20260507101116 | 56 | 0.0 | 0.0 | 0.00 | 0.00 | 0.00 | 93 | 1016.2 | |
| 20260507100616 | 56 | 0.0 | 0.0 | 0.00 | 0.00 | 0.00 | 92 | 1016.1 | |
| 20260507100116 | 56 | 0.0 | 0.0 | 0.00 | 0.00 | 0.00 | 93 | 1016.1 | |
| 20260507095616 | 56 | 0.0 | 0.0 | 0.00 | 0.00 | 0.00 | 93 | 1016.2 | |
| 20260507095116 | 56 | 0.0 | 0.0 | 0.00 | 0.00 | 0.00 | 92 | 1016.3 | |
| 20260507094616 | 57 | 0.0 | 0.0 | 0.00 | 0.00 | 0.00 | 92 | 1016.3 | |
| 20260507094116 | 57 | 0.0 | 0.0 | 0.00 | 0.00 | 0.00 | 92 | 1016.3 | |
| 20260507093616 | 57 | 0.0 | 0.0 | 0.00 | 0.00 | 0.00 | 93 | 1016.4 | |
| 20260507093136 | 57 | 0.0 | 0.0 | 0.00 | 0.00 | 0.00 | 92 | 1016.4 | |
| 20260507092636 | 57 | 0.0 | 0.0 | 0.00 | 0.00 | 0.00 | 92 | 1016.5 | |
| 20260507092116 | 57 | 0.0 | 0.0 | 0.00 | 0.00 | 0.00 | 92 | 1016.5 | |
| 20260507091616 | 57 | 0.0 | 0.0 | 0.00 | 0.00 | 0.00 | 92 | 1016.5 | |
| 20260507091116 | 57 | 0.0 | 0.0 | 0.00 | 0.00 | 0.00 | 92 | 1016.6 | |
| 20260507090616 | 57 | 0.0 | 0.0 | 0.00 | 0.00 | 0.00 | 93 | 1016.7 | |
| 20260507090116 | 57 | 0.0 | 0.0 | 0.00 | 0.00 | 0.00 | 93 | 1016.7 | |
| 20260507085616 | 57 | 0.0 | 0.0 | 0.00 | 0.00 | 0.00 | 92 | 1016.8 | |
| 20260507085136 | 57 | 0.0 | 0.0 | 0.00 | 0.00 | 0.00 | 92 | 1016.7 | |
| 20260507084616 | 57 | 0.0 | 0.0 | 0.00 | 0.00 | 0.00 | 92 | 1016.8 | |
| 20260507084116 | 57 | 0.0 | 0.0 | 0.00 | 0.00 | 0.00 | 92 | 1016.8 | |
| 20260507083616 | 57 | 0.0 | 0.0 | 0.00 | 0.00 | 0.00 | 92 | 1016.9 | |
| 20260507083116 | 57 | 0.0 | 0.0 | 0.00 | 0.00 | 0.00 | 91 | 1016.9 | |
| 20260507082636 | 57 | 0.0 | 0.0 | 0.00 | 0.00 | 0.00 | 91 | 1016.9 | |
| 20260507082116 | 57 | 0.0 | 0.0 | 0.00 | 0.00 | 0.00 | 91 | 1016.9 | |
| 20260507081616 | 57 | 0.0 | 0.0 | 0.00 | 0.00 | 0.00 | 92 | 1016.9 | |
| 20260507081116 | 57 | 0.0 | 0.0 | 0.00 | 0.00 | 0.00 | 91 | 1017.0 | |
| 20260507080636 | 57 | 0.0 | 0.0 | 0.00 | 0.00 | 0.00 | 91 | 1017.1 | |
| 20260507080156 | 57 | 0.0 | 0.0 | 0.00 | 0.00 | 0.00 | 90 | 1017.1 | |
| 20260507075616 | 58 | 0.0 | 0.0 | 0.00 | 0.00 | 0.00 | 90 | 1017.1 | |
| 20260507075116 | 58 | 0.0 | 0.0 | 0.00 | 0.00 | 0.00 | 90 | 1017.1 | |
| 20260507074616 | 58 | 0.0 | 0.0 | 0.00 | 0.00 | 0.00 | 90 | 1017.1 | |
| 20260507074116 | 58 | 0.0 | 0.0 | 0.00 | 0.00 | 0.00 | 89 | 1017.2 | |
| 20260507073636 | 58 | 0.0 | 0.0 | 0.00 | 0.00 | 0.00 | 89 | 1017.1 | |
| 20260507073116 | 58 | 0.0 | 0.0 | 0.00 | 0.00 | 0.00 | 89 | 1017.2 | |
| 20260507072616 | 59 | 0.0 | 0.0 | 0.00 | 0.00 | 0.00 | 89 | 1017.3 | |
| 20260507072116 | 59 | 0.0 | 0.0 | 0.00 | 0.00 | 0.00 | 88 | 1017.3 | |
| 20260507071636 | 59 | 0.0 | 0.0 | 0.00 | 0.00 | 0.00 | 88 | 1017.3 | |
| 20260507071116 | 59 | 283 | 0.9 | 0.9 | 0.00 | 0.00 | 0.00 | 88 | 1017.3 |
| 20260507070616 | 59 | 0.0 | 0.0 | 0.00 | 0.00 | 0.00 | 88 | 1017.2 | |
| 20260507070136 | 59 | 0.0 | 0.9 | 0.00 | 0.00 | 0.00 | 88 | 1017.2 | |
| 20260507065616 | 59 | 283 | 0.9 | 0.9 | 0.00 | 0.00 | 0.00 | 88 | 1017.2 |
| 20260507065116 | 59 | 260 | 0.9 | 1.7 | 0.00 | 0.00 | 0.00 | 88 | 1017.2 |
| 20260507064616 | 59 | 0.0 | 1.7 | 0.00 | 0.00 | 0.00 | 87 | 1017.2 | |
| 20260507064116 | 59 | 0.0 | 0.0 | 0.00 | 0.00 | 0.00 | 87 | 1017.3 | |
| 20260507063617 | 60 | 283 | 0.9 | 1.7 | 0.00 | 0.00 | 0.00 | 87 | 1017.3 |
| 20260507063116 | 60 | 260 | 0.9 | 1.7 | 0.00 | 0.00 | 0.00 | 87 | 1017.3 |
| 20260507062616 | 60 | 305 | 1.7 | 2.6 | 0.00 | 0.00 | 0.00 | 86 | 1017.3 |
| 20260507062116 | 60 | 283 | 2.6 | 3.5 | 0.00 | 0.00 | 0.00 | 86 | 1017.3 |
| 20260507061616 | 60 | 283 | 3.5 | 4.3 | 0.00 | 0.00 | 0.00 | 86 | 1017.3 |
| 20260507061116 | 60 | 283 | 1.7 | 2.6 | 0.00 | 0.00 | 0.00 | 86 | 1017.4 |
| 20260507060616 | 60 | 283 | 1.7 | 1.7 | 0.00 | 0.00 | 0.00 | 85 | 1017.4 |
| 20260507060116 | 60 | 283 | 2.6 | 4.3 | 0.00 | 0.00 | 0.00 | 85 | 1017.4 |
| 20260507055616 | 60 | 283 | 4.3 | 6.1 | 0.00 | 0.00 | 0.00 | 85 | 1017.4 |
| 20260507055116 | 60 | 283 | 1.7 | 2.6 | 0.00 | 0.00 | 0.00 | 84 | 1017.4 |
| 20260507054616 | 60 | 283 | 3.5 | 4.3 | 0.00 | 0.00 | 0.00 | 84 | 1017.4 |
| 20260507054116 | 60 | 260 | 3.5 | 6.1 | 0.00 | 0.00 | 0.00 | 84 | 1017.4 |
| 20260507053616 | 60 | 283 | 4.3 | 7.0 | 0.00 | 0.00 | 0.00 | 83 | 1017.3 |
| 20260507053117 | 60 | 283 | 3.5 | 6.1 | 0.00 | 0.00 | 0.00 | 83 | 1017.4 |
| 20260507052616 | 61 | 283 | 1.7 | 2.6 | 0.00 | 0.00 | 0.00 | 84 | 1017.3 |
| 20260507052116 | 61 | 283 | 1.7 | 2.6 | 0.00 | 0.00 | 0.00 | 84 | 1017.3 |
| 20260507051637 | 61 | 260 | 1.7 | 4.3 | 0.00 | 0.00 | 0.00 | 84 | 1017.3 |
| 20260507051116 | 61 | 283 | 3.5 | 5.2 | 0.00 | 0.00 | 0.00 | 84 | 1017.4 |
| 20260507050616 | 61 | 283 | 1.7 | 4.3 | 0.00 | 0.00 | 0.00 | 84 | 1017.3 |
| 20260507050117 | 61 | 260 | 0.9 | 1.7 | 0.00 | 0.00 | 0.00 | 84 | 1017.3 |
| 20260507045616 | 61 | 260 | 1.7 | 3.5 | 0.00 | 0.00 | 0.00 | 84 | 1017.2 |
| 20260507045136 | 61 | 305 | 2.6 | 3.5 | 0.00 | 0.00 | 0.00 | 84 | 1017.2 |
| 20260507044636 | 61 | 305 | 1.7 | 3.5 | 0.00 | 0.00 | 0.00 | 84 | 1017.2 |
| 20260507044116 | 61 | 305 | 0.9 | 2.6 | 0.00 | 0.00 | 0.00 | 83 | 1017.2 |
| 20260507043616 | 61 | 283 | 2.6 | 3.5 | 0.00 | 0.00 | 0.00 | 83 | 1017.2 |
| 20260507043136 | 61 | 283 | 0.9 | 0.9 | 0.00 | 0.00 | 0.00 | 82 | 1017.1 |
| 20260507042616 | 61 | 283 | 1.7 | 2.6 | 0.00 | 0.00 | 0.00 | 82 | 1017.1 |
| 20260507042116 | 61 | 305 | 3.5 | 5.2 | 0.00 | 0.00 | 0.00 | 82 | 1017.1 |
| 20260507041616 | 61 | 260 | 1.7 | 3.5 | 0.00 | 0.00 | 0.00 | 81 | 1017.0 |
| 20260507041116 | 61 | 283 | 0.9 | 2.6 | 0.00 | 0.00 | 0.00 | 81 | 1017.0 |
| 20260507040616 | 61 | 283 | 2.6 | 5.2 | 0.00 | 0.00 | 0.00 | 81 | 1017.0 |
| 20260507040116 | 61 | 283 | 2.6 | 3.5 | 0.00 | 0.00 | 0.00 | 81 | 1017.1 |
| 20260507035636 | 61 | 283 | 2.6 | 3.5 | 0.00 | 0.00 | 0.00 | 81 | 1017.0 |
| 20260507035116 | 62 | 260 | 3.5 | 5.2 | 0.00 | 0.00 | 0.00 | 81 | 1017.0 |
| 20260507034616 | 62 | 305 | 2.6 | 4.3 | 0.00 | 0.00 | 0.00 | 81 | 1016.9 |
| 20260507034116 | 62 | 305 | 3.5 | 6.1 | 0.00 | 0.00 | 0.00 | 81 | 1016.9 |
| 20260507033616 | 62 | 305 | 2.6 | 5.2 | 0.00 | 0.00 | 0.00 | 81 | 1016.8 |
| 20260507033116 | 62 | 260 | 3.5 | 5.2 | 0.00 | 0.00 | 0.00 | 80 | 1016.7 |
| 20260507032616 | 62 | 283 | 5.2 | 8.7 | 0.00 | 0.00 | 0.00 | 80 | 1016.7 |
| 20260507032116 | 62 | 305 | 4.3 | 6.1 | 0.00 | 0.00 | 0.00 | 79 | 1016.5 |
| 20260507031616 | 63 | 305 | 5.2 | 8.7 | 0.00 | 0.00 | 0.00 | 78 | 1016.5 |
| 20260507031136 | 63 | 283 | 4.3 | 7.8 | 0.00 | 0.00 | 0.00 | 77 | 1016.5 |
| 20260507030636 | 63 | 305 | 3.5 | 5.2 | 0.00 | 0.00 | 0.00 | 75 | 1016.5 |
| 20260507030116 | 63 | 305 | 2.6 | 4.3 | 0.00 | 0.00 | 0.00 | 74 | 1016.4 |
| 20260507025616 | 63 | 283 | 3.5 | 5.2 | 0.00 | 0.00 | 0.00 | 73 | 1016.3 |
| 20260507025136 | 63 | 283 | 1.7 | 2.6 | 0.00 | 0.00 | 0.00 | 73 | 1016.3 |
| 20260507024616 | 63 | 283 | 5.2 | 9.6 | 0.00 | 0.00 | 0.00 | 73 | 1016.3 |
| 20260507024116 | 64 | 260 | 2.6 | 5.2 | 0.00 | 0.00 | 0.00 | 73 | 1016.2 |
| 20260507023616 | 64 | 283 | 5.2 | 7.0 | 0.00 | 0.00 | 0.00 | 72 | 1016.2 |
| 20260507023116 | 64 | 283 | 3.5 | 4.3 | 0.00 | 0.00 | 0.00 | 74 | 1016.2 |
| 20260507022616 | 64 | 260 | 4.3 | 6.1 | 0.00 | 0.00 | 0.00 | 74 | 1016.1 |
| 20260507022136 | 64 | 283 | 2.6 | 4.3 | 0.00 | 0.00 | 0.00 | 73 | 1016.1 |
| 20260507021616 | 65 | 283 | 3.5 | 5.2 | 0.00 | 0.00 | 0.00 | 73 | 1016.1 |
| 20260507021116 | 65 | 283 | 5.2 | 7.8 | 0.00 | 0.00 | 0.00 | 72 | 1016.0 |
| 20260507020616 | 65 | 283 | 4.3 | 6.1 | 0.00 | 0.00 | 0.00 | 72 | 1016.0 |
| 20260507020116 | 65 | 305 | 3.5 | 5.2 | 0.00 | 0.00 | 0.00 | 71 | 1016.0 |
| 20260507015616 | 65 | 283 | 5.2 | 8.7 | 0.00 | 0.00 | 0.00 | 71 | 1016.0 |
| 20260507015116 | 66 | 260 | 5.2 | 7.8 | 0.00 | 0.00 | 0.00 | 71 | 1015.9 |
| 20260507014616 | 66 | 283 | 4.3 | 7.0 | 0.00 | 0.00 | 0.00 | 69 | 1015.9 |
| 20260507014116 | 66 | 283 | 5.2 | 7.0 | 0.00 | 0.00 | 0.00 | 68 | 1015.8 |
| 20260507013616 | 67 | 283 | 5.2 | 11.3 | 0.00 | 0.00 | 0.00 | 68 | 1015.8 |
| 20260507013136 | 66 | 260 | 6.1 | 8.7 | 0.00 | 0.00 | 0.00 | 69 | 1015.7 |
| 20260507012616 | 66 | 260 | 5.2 | 7.0 | 0.00 | 0.00 | 0.00 | 68 | 1015.7 |
| 20260507012116 | 67 | 283 | 7.8 | 10.4 | 0.00 | 0.00 | 0.00 | 68 | 1015.7 |
| 20260507011616 | 67 | 283 | 7.0 | 9.6 | 0.00 | 0.00 | 0.00 | 67 | 1015.6 |
| 20260507011136 | 67 | 260 | 7.8 | 10.4 | 0.00 | 0.00 | 0.00 | 66 | 1015.6 |
| 20260507010615 | 67 | 260 | 7.8 | 10.4 | 0.00 | 0.00 | 0.00 | 66 | 1015.6 |
| 20260507010116 | 67 | 260 | 7.0 | 8.7 | 0.00 | 0.00 | 0.00 | 67 | 1015.6 |
| 20260507005616 | 67 | 260 | 6.1 | 9.6 | 0.00 | 0.00 | 0.00 | 67 | 1015.6 |
| 20260507005116 | 68 | 260 | 7.8 | 11.3 | 0.00 | 0.00 | 0.00 | 66 | 1015.6 |
| 20260507004616 | 68 | 260 | 6.1 | 9.6 | 0.00 | 0.00 | 0.00 | 67 | 1015.5 |
| 20260507004116 | 67 | 260 | 6.1 | 10.4 | 0.00 | 0.00 | 0.00 | 68 | 1015.6 |
| 20260507003616 | 67 | 260 | 7.0 | 10.4 | 0.00 | 0.00 | 0.00 | 67 | 1015.6 |
| 20260507003116 | 68 | 283 | 8.7 | 10.4 | 0.00 | 0.00 | 0.00 | 65 | 1015.6 |
| 20260507002616 | 68 | 283 | 7.8 | 9.6 | 0.00 | 0.00 | 0.00 | 66 | 1015.6 |
| 20260507002115 | 68 | 260 | 5.2 | 9.6 | 0.00 | 0.00 | 0.00 | 66 | 1015.6 |
| 20260507001615 | 68 | 260 | 5.2 | 8.7 | 0.00 | 0.00 | 0.00 | 65 | 1015.6 |
| 20260507001115 | 69 | 283 | 6.1 | 10.4 | 0.00 | 0.00 | 0.00 | 63 | 1015.5 |
| 20260507000636 | 70 | 283 | 4.3 | 6.1 | 0.00 | 0.00 | 0.00 | 62 | 1015.4 |
| 20260507000115 | 70 | 283 | 6.1 | 8.7 | 0.00 | 0.00 | 0.00 | 62 | 1015.5 |
| 20260506235616 | 70 | 283 | 5.2 | 7.0 | 0.00 | 0.00 | 0.00 | 61 | 1015.4 |
| 20260506235135 | 70 | 260 | 7.0 | 10.4 | 0.00 | 0.00 | 0.00 | 60 | 1015.5 |
| 20260506234615 | 70 | 260 | 4.3 | 6.1 | 0.00 | 0.00 | 0.00 | 62 | 1015.4 |
| 20260506234115 | 70 | 260 | 8.7 | 13.9 | 0.00 | 0.00 | 0.00 | 59 | 1015.4 |
| 20260506233616 | 70 | 283 | 7.0 | 13.0 | 0.00 | 0.00 | 0.00 | 60 | 1015.3 |
| 20260506233135 | 70 | 305 | 5.2 | 7.8 | 0.00 | 0.00 | 0.00 | 61 | 1015.4 |
| 20260506232616 | 70 | 283 | 6.1 | 11.3 | 0.00 | 0.00 | 0.00 | 60 | 1015.4 |
| 20260506232115 | 70 | 283 | 7.8 | 11.3 | 0.00 | 0.00 | 0.00 | 59 | 1015.4 |
| 20260506231615 | 70 | 260 | 6.1 | 9.6 | 0.00 | 0.00 | 0.00 | 59 | 1015.4 |
| 20260506231116 | 70 | 260 | 6.1 | 10.4 | 0.00 | 0.00 | 0.00 | 59 | 1015.5 |
| 20260506230616 | 70 | 260 | 8.7 | 13.0 | 0.00 | 0.00 | 0.00 | 57 | 1015.6 |
| 20260506230135 | 71 | 305 | 7.0 | 9.6 | 0.00 | 0.00 | 0.00 | 58 | 1015.6 |
| 20260506225615 | 71 | 260 | 6.1 | 12.2 | 0.00 | 0.00 | 0.00 | 57 | 1015.6 |
| 20260506225135 | 71 | 238 | 6.1 | 11.3 | 0.00 | 0.00 | 0.00 | 57 | 1015.7 |
| 20260506224616 | 71 | 283 | 6.1 | 7.8 | 0.00 | 0.00 | 0.00 | 57 | 1015.7 |
| 20260506224115 | 71 | 283 | 7.0 | 11.3 | 0.00 | 0.00 | 0.00 | 56 | 1015.9 |
| 20260506223616 | 72 | 283 | 6.1 | 9.6 | 0.00 | 0.00 | 0.00 | 55 | 1015.8 |
| 20260506223116 | 72 | 283 | 7.0 | 9.6 | 0.00 | 0.00 | 0.00 | 55 | 1016.0 |
| 20260506222615 | 72 | 283 | 5.2 | 7.8 | 0.00 | 0.00 | 0.00 | 56 | 1015.9 |
| 20260506222136 | 73 | 260 | 5.2 | 7.8 | 0.00 | 0.00 | 0.00 | 56 | 1016.0 |
| 20260506221615 | 73 | 283 | 6.1 | 9.6 | 0.00 | 0.00 | 0.00 | 56 | 1016.0 |
| 20260506221115 | 73 | 238 | 4.3 | 7.8 | 0.00 | 0.00 | 0.00 | 55 | 1016.1 |
| 20260506220616 | 74 | 260 | 4.3 | 8.7 | 0.00 | 0.00 | 0.00 | 53 | 1016.2 |
| 20260506220135 | 74 | 260 | 1.7 | 2.6 | 0.00 | 0.00 | 0.00 | 50 | 1016.3 |
| 20260506215615 | 74 | 260 | 6.1 | 9.6 | 0.00 | 0.00 | 0.00 | 49 | 1016.3 |
| 20260506215115 | 74 | 260 | 3.5 | 7.0 | 0.00 | 0.00 | 0.00 | 49 | 1016.4 |